Location: Byszew
(52.1813°N, 19.2693°E)
Time: 21:30:20
(UTC+00:00)

ARGOS - Pass Details

Date: 03 March 2021
Orbit: 819 x 835 km, 98.4° (Epoch: 16 April)

Event Time Altitude Azimuth Distance (km) Brightness Sun altitude
Rises 17:50:03 0° 174° (S) 3,369 6.2 -13.6°
Reaches altitude 10° 17:52:26 10° 177° (S) 2,441 5.5 -14.0°
Maximum altitude 17:57:47 62° 258° (WSW) 940 3.7 -14.8°
Drops below altitude 10° 18:03:12 10° 340° (NNW) 2,461 6.0 -15.6°
Sets 18:05:37 0° 343° (NNW) 3,399 6.7 -16.0°
